Location: Helion Bumpstead
(52.0500°N, 0.4000°E)
Time: 20:34:36
(UTC+00:00)

Cosmos 2084 - Pass Details

Date: 15 November 2025
Orbit: 529 x 574 km, 62.8° (Epoch: 06 December)

Event Time Altitude Azimuth Distance (km) Brightness Sun altitude
Exits shadow 06:39:06 - 305° (NW) 2,025 5.6 -6.3°
Reaches altitude 10° 06:39:39 10° 303° (WNW) 1,813 5.3 -6.2°
Maximum altitude 06:43:28 40° 233° (SW) 801 3.9 -5.7°
Drops below altitude 10° 06:47:14 10° 163° (SSE) 1,781 6.6 -5.2°
Sets 06:49:29 0° 156° (SSE) 2,662 7.7 -4.8°
